Location: Austin
(30.3000°N, 97.7500°W)
Time: 01:17:55
(UTC-06:00)

H-II Stage 2 - Pass Details

Date: 04 November 2025
Orbit: 315 x 26741 km, 28.4° (Epoch: 15 November)

Event Time Altitude Azimuth Distance (km) Brightness Sun altitude
Rises 19:54:03 0° 264° (W) 8,652 9.1 -29.1°
Reaches altitude 10° 20:02:55 10° 264° (W) 4,916 7.5 -31.0°
Enters shadow 20:11:06 49° 248° (WSW) 1,052 3.4 -32.8°
